Location: Cheching
(60.0667°N, 164.2167°W)
Time: 06:31:04
(UTC+00:00)

XW-2D - Pass Details

Date: 21 January 2021
Orbit: 505 x 525 km, 97.5° (Epoch: 08 March)

Event Time Altitude Azimuth Distance (km) Brightness Sun altitude
Rises 15:36:47 0° 27° (NNE) 2,672 ? -28.4°
Reaches altitude 10° 15:39:59 10° 56° (NE) 1,779 ? -28.0°
Maximum altitude 15:41:46 13° 84° (E) 1,601 ? -27.8°
Drops below altitude 10° 15:43:34 10° 112° (ESE) 1,775 ? -27.6°
Sets 15:46:44 0° 141° (SE) 2,659 ? -27.2°
